Location: Heisede
(52.2582°N, 9.8523°E)
Time: 22:44:27
(UTC+00:00)

NOSS 8 (F) - Pass Details

Date: 13 January 2026
Orbit: 363 x 1536 km, 63.3° (Epoch: 7 February)

Event Time Altitude Azimuth Distance (km) Brightness Sun altitude
Exits shadow 05:56:23 23° 313° (NW) 858 5.3 -12.8°
Maximum altitude 05:58:06 87° 225° (SW) 392 4.0 -12.6°
Drops below altitude 10° 06:01:21 10° 136° (SE) 1,527 8.2 -12.1°
Sets 06:03:37 0° 136° (SE) 2,516 9.4 -11.8°
